EHI
17 17 19 23 30 38 40 33 29 28 23 14 11 13 15 13 12 15 15 10 5 3 1 0 1 1 2 3 3 4 5 4 3 4 7 7 6 6 7 6 4 2 4
22 22 24 25 31 40 43 38 34 33 27 19 15 16 17 16 15 16 15 10 6 4 1 1 1 1 3 5 6 7 6 5 3 3 5 5 5 4 5 5 5 4 5
27 28 27 27 32 41 44 42 43 42 35 27 22 19 21 21 20 19 16 10 7 5 3 2 2 2 4 8 10 10 10 8 5 4 5 5 5 4 3 3 4 7 8
28 29 28 28 32 38 43 47 50 49 44 36 29 25 25 25 25 23 18 11 8 6 4 4 4 3 4 8 11 12 12 10 7 5 6 7 6 4 2 1 3 5 7
28 29 30 30 33 37 45 54 58 56 53 46 40 35 32 28 26 25 19 14 12 9 6 5 5 4 5 7 11 12 11 9 7 7 7 8 6 4 3 2 1 2 4
31 33 35 35 36 39 48 60 65 63 59 55 50 45 39 33 27 24 19 15 13 11 9 7 6 6 6 6 9 11 9 8 8 8 7 6 6 5 4 3 2 3 4
36 37 40 41 42 45 53 64 70 67 62 58 56 51 43 36 28 22 16 12 10 11 13 11 9 9 8 7 8 9 9 8 8 8 7 7 6 5 5 6 5 5 5
35 36 39 43 45 50 57 67 73 70 63 58 57 53 45 35 27 21 15 11 10 12 16 17 16 13 10 9 9 9 10 10 10 8 7 7 8 7 6 7 9 8 7
29 31 36 41 43 48 58 68 73 71 64 59 57 52 43 34 27 22 16 13 14 16 19 22 20 16 13 12 12 11 13 15 13 10 10 10 9 8 8 9 11 11 10
26 29 34 39 42 47 56 65 70 70 65 58 52 48 42 35 28 23 19 18 19 20 22 23 21 17 14 14 13 12 13 14 13 12 13 13 12 10 10 12 14 14 14
26 29 32 38 44 47 53 61 67 68 65 58 50 45 43 38 29 24 24 23 21 21 21 21 20 17 15 14 13 12 11 11 11 12 14 14 12 11 11 13 15 16 17
25 28 31 37 44 47 50 56 61 63 63 59 53 47 45 40 32 29 31 29 25 23 20 20 20 19 16 14 13 12 10 10 10 11 13 13 11 12 12 11 12 14 14
24 26 31 38 46 50 52 54 55 56 59 59 56 50 44 40 36 35 37 36 31 26 21 20 22 20 16 14 14 13 12 10 10 11 13 14 14 14 14 12 11 10 9
27 29 35 44 51 56 56 53 51 53 57 58 55 51 46 42 40 40 40 40 36 30 24 22 23 21 17 15 15 15 14 12 11 12 14 17 17 15 13 12 12 12 11
30 35 44 52 57 60 59 55 54 54 56 56 53 51 50 47 44 43 41 40 36 32 29 27 25 22 18 15 15 16 17 17 17 17 18 18 16 12 10 9 11 12 13
30 38 49 57 59 60 59 58 57 57 57 55 52 50 51 49 45 42 40 38 36 34 32 30 28 24 18 11 10 13 18 21 22 23 21 18 13 10 8 7 7 8 9
28 33 42 50 52 54 56 57 57 57 57 56 53 51 50 47 43 39 38 38 38 37 35 32 30 26 17 7 4 9 16 20 21 22 22 17 11 10 11 10 8 7 7
26 28 31 35 39 43 49 52 53 54 53 53 52 51 49 46 43 41 39 38 39 39 38 35 31 26 17 8 3 5 11 15 16 17 17 16 13 11 13 13 11 11 10
24 24 25 28 34 39 45 48 50 50 50 48 48 48 49 47 45 44 43 41 39 38 36 34 30 25 20 11 4 3 7 11 12 12 13 14 13 10 10 12 12 11 11
24 24 26 30 37 43 45 45 46 49 49 47 46 47 48 48 46 47 46 42 39 35 32 29 26 24 21 14 4 2 7 10 10 11 12 11 9 6 6 8 9 8 7
27 27 29 35 42 46 46 44 44 47 49 49 48 47 47 46 46 46 45 40 36 32 29 26 24 24 20 13 5 2 6 10 11 11 10 8 5 3 3 4 5 4 4
28 30 33 40 46 49 48 46 44 45 48 49 48 47 45 44 43 42 41 38 33 30 26 23 23 23 19 12 6 2 3 7 11 10 8 5 3 1 1 1 1 1 2
28 30 35 43 49 50 50 50 47 44 45 47 47 46 45 44 41 39 37 34 30 26 22 20 20 21 18 12 7 3 1 3 6 6 4 2 1 0 0 0 0 0 1
33 34 38 44 48 49 50 52 48 43 42 44 45 45 44 42 38 35 33 29 25 21 19 18 19 20 17 12 8 5 2 2 2 2 1 1 1 1 0 0 0 0 0
38 38 40 43 43 44 46 48 45 42 41 43 42 40 38 35 32 30 27 22 18 16 15 15 16 17 14 10 8 7 5 4 2 1 0 1 1 1 1 1 1 0 0
39 39 39 39 39 39 40 43 43 41 41 41 39 36 32 30 30 29 24 17 13 13 11 11 12 12 9 7 7 7 7 5 2 1 1 1 1 1 2 2 2 1 0
Wind_Speed
14 13 12 12 12 10 9 7 6 6 4 3 2 2 2 1 2 3 3 2 1 2 1 1 0 0 1 1 1 1 1 1 1 0 0 1 2 2 2 2 1 2 3
14 13 13 13 13 12 10 8 7 7 5 3 2 2 2 2 2 2 2 2 1 1 2 1 0 1 1 1 0 1 1 1 0 0 1 1 1 1 2 2 2 2 2
15 14 13 13 13 12 11 9 8 7 6 5 3 2 2 1 2 3 2 1 2 1 1 1 1 0 0 1 1 1 1 1 1 0 0 0 0 1 0 2 2 2 1
15 16 14 13 13 13 12 9 8 7 6 5 4 5 4 2 2 2 2 2 2 1 1 1 1 1 1 1 1 1 1 1 2 1 0 1 1 0 1 1 1 2 1
16 16 15 14 13 13 13 11 9 7 7 5 5 4 3 3 2 3 3 2 2 2 1 1 1 1 0 0 0 1 1 1 2 2 1 1 0 1 1 1 2 1 2
13 14 14 12 11 12 12 12 10 8 7 6 5 4 4 3 3 3 3 2 2 2 2 2 1 1 0 0 1 1 1 1 2 2 2 1 1 1 1 1 2 1 1
13 13 14 14 11 11 12 12 12 10 9 8 6 5 4 4 4 3 3 2 2 2 2 2 1 1 1 0 0 0 1 1 1 2 2 2 2 1 1 1 2 2 1
12 13 13 13 12 12 11 12 12 10 10 8 6 5 5 4 3 3 3 2 1 2 3 3 2 1 1 0 1 0 1 1 1 2 2 2 2 2 2 1 1 2 2
10 12 13 13 12 11 11 12 11 10 9 8 7 6 5 4 3 4 3 2 1 2 3 3 2 2 1 1 0 0 1 1 1 2 2 2 2 2 2 1 1 1 2
9 8 9 12 12 12 12 11 11 10 9 8 7 7 6 4 3 4 3 2 2 1 2 3 3 2 2 2 1 1 0 1 1 2 2 2 2 3 2 2 1 1 2
9 9 8 9 10 10 11 11 11 11 10 9 7 6 6 5 4 4 3 3 2 3 2 2 2 2 2 2 1 1 1 1 1 2 2 2 3 3 3 3 2 1 1
7 8 8 8 9 9 9 9 9 11 10 8 7 6 5 5 5 4 4 3 3 3 3 3 3 3 2 2 1 2 1 2 2 2 2 3 3 3 3 3 3 2 2
7 7 7 8 8 8 8 8 8 9 9 8 8 6 6 6 5 4 4 4 3 3 3 3 3 2 2 2 2 2 2 2 2 2 2 2 3 3 2 3 3 3 3
5 7 7 7 7 7 6 6 7 7 8 8 8 7 6 6 5 4 4 4 3 3 3 3 3 3 3 2 2 2 3 3 3 2 2 2 2 3 3 3 3 3 4
6 6 7 6 6 6 6 6 5 6 6 7 7 7 6 5 4 4 4 4 4 4 3 3 3 3 3 3 2 2 3 3 3 2 2 2 1 1 2 3 3 4 3
5 6 6 7 6 6 6 6 5 5 6 6 6 6 6 5 4 4 4 4 3 3 3 4 4 4 3 3 3 2 3 3 3 3 2 3 2 2 3 4 5 5 4
5 6 6 6 6 5 6 6 5 6 6 5 5 5 5 5 5 5 4 4 4 4 4 4 4 3 3 3 3 3 3 3 3 2 2 3 1 1 2 4 5 5 5
5 5 5 7 7 6 6 5 6 5 5 5 5 5 5 4 4 4 4 4 3 4 4 4 4 4 3 4 4 3 4 3 3 3 2 2 1 1 2 3 3 3 3
4 4 4 5 6 6 6 5 6 6 5 5 5 5 5 4 4 4 4 3 3 3 3 3 3 3 3 4 4 3 3 3 3 3 2 2 1 1 2 2 3 3 3
4 4 4 5 6 6 7 6 6 6 5 5 5 4 4 4 4 4 3 3 3 3 3 3 3 4 3 4 4 4 3 3 3 3 2 1 1 1 1 2 3 3 3
4 5 4 4 4 4 6 6 5 5 4 3 4 4 4 4 4 4 3 3 3 3 3 3 3 3 3 4 5 4 2 3 3 3 2 1 1 1 3 3 4 4 4
4 5 5 5 4 4 5 5 4 4 4 4 4 4 4 4 4 4 4 3 3 3 3 3 3 3 3 4 4 4 5 4 3 3 1 1 2 3 4 4 4 4 4
3 3 4 4 4 4 4 5 4 4 5 4 4 4 4 3 4 4 4 4 3 3 3 3 3 3 3 3 4 5 6 5 3 2 2 3 5 5 5 6 6 5 3
3 3 4 4 3 3 3 4 4 4 4 4 4 4 4 4 4 4 4 4 3 3 2 2 2 2 2 2 2 2 3 4 4 3 3 5 6 5 5 4 4 5 4
1 2 3 3 4 3 2 3 4 4 4 4 4 4 4 5 4 3 2 3 2 2 3 2 2 2 2 2 3 2 2 2 2 2 3 3 2 3 3 3 2 2 2
1 2 2 2 3 3 2 2 3 3 4 4 4 4 3 3 4 4 3 2 2 3 3 2 1 1 2 3 3 3 3 3 2 2 3 3 2 2 2 2 2 2 1
Wind_Direction
170 165 165 159 154 153 156 160 161 149 158 167 171 161 157 158 123 122 122 129 143 143 199 9 111 121 71 42 21 358 278 246 214 274 228 202 204 179 172 168 191 182 175
170 166 168 165 162 159 160 162 167 161 173 170 170 166 151 166 125 100 125 143 131 122 133 101 309 73 115 136 69 276 292 289 149 238 267 209 217 228 181 161 190 195 182
173 171 174 171 165 163 168 172 170 164 177 169 170 162 137 134 118 131 146 149 129 140 84 105 66 51 182 143 206 258 279 287 278 210 73 5 4 295 207 186 180 165 191
175 173 177 176 171 169 169 165 164 164 170 176 177 172 169 168 151 149 145 152 152 153 121 110 100 23 22 76 259 105 296 289 293 281 131 201 128 286 312 285 170 158 195
174 175 176 177 176 171 168 164 160 163 167 180 181 185 172 163 150 140 137 165 159 155 130 117 119 131 74 100 327 44 333 320 314 321 311 309 255 263 237 280 271 232 200
170 170 168 168 176 171 166 163 160 163 168 182 179 183 176 167 156 153 156 182 161 162 146 133 128 131 116 25 22 44 313 329 333 330 326 330 299 290 286 263 263 257 232
168 167 168 166 171 169 166 163 162 167 171 179 180 181 180 173 163 175 172 191 175 165 153 148 154 159 171 196 122 79 310 300 315 316 308 309 298 288 287 267 271 273 262
169 171 170 169 169 168 163 161 163 170 174 179 180 177 178 187 182 183 181 197 184 163 149 150 160 171 187 199 86 197 252 269 287 291 301 305 302 302 291 277 288 294 283
168 172 168 168 169 169 165 165 162 169 176 181 178 176 182 187 183 175 191 187 174 171 146 154 158 161 159 161 136 219 280 298 280 291 293 292 296 292 286 284 265 260 283
162 161 165 167 171 173 168 167 164 169 174 179 181 180 181 185 186 182 181 173 166 158 159 164 165 173 178 179 188 222 233 279 276 267 297 309 303 306 301 290 271 256 259
162 162 165 166 167 169 168 169 167 168 174 181 178 176 175 184 186 183 176 173 173 174 170 165 164 166 181 173 181 244 231 255 282 292 293 298 300 307 313 310 299 279 261
157 158 161 165 167 166 168 167 170 173 174 172 167 169 167 173 180 180 174 177 179 180 176 173 176 186 184 180 195 240 263 260 259 279 302 303 296 293 299 304 305 297 284
152 159 162 164 163 158 159 163 172 175 171 169 168 168 180 181 182 182 177 177 179 184 185 178 184 198 191 196 220 229 248 266 267 266 281 294 303 302 297 293 302 299 299
156 159 150 148 147 146 149 156 169 166 167 165 169 172 182 184 182 181 178 178 183 190 191 187 196 200 189 209 232 240 245 252 263 273 276 280 287 295 295 292 302 300 298
169 152 146 139 138 139 145 149 160 162 162 162 170 177 179 178 176 177 177 180 188 193 185 188 203 210 200 209 211 240 244 251 258 258 258 246 231 257 287 298 310 307 301
160 142 141 142 144 147 150 150 158 156 152 158 167 167 168 171 175 179 174 181 190 189 184 197 204 216 214 186 187 227 255 251 253 255 258 243 213 230 251 272 278 274 278
155 147 150 151 155 152 148 154 159 154 152 154 160 160 165 171 174 187 179 188 192 193 196 200 193 195 203 195 193 218 252 249 251 257 260 269 263 230 268 264 270 278 270
158 152 163 159 158 157 150 155 157 154 157 161 162 164 168 173 177 175 180 188 190 195 199 201 196 197 202 189 197 216 241 244 247 250 252 252 269 286 306 286 279 271 281
148 156 170 157 144 155 155 158 165 164 166 168 168 169 170 177 178 176 181 183 185 191 198 193 193 193 195 186 188 199 240 242 248 245 246 244 213 314 321 285 287 293 298
152 150 155 150 150 156 154 160 169 167 173 175 173 170 171 178 180 177 177 183 186 195 202 190 189 190 183 177 178 192 240 250 248 242 211 151 137 278 305 284 281 282 291
150 147 148 145 146 153 151 160 170 173 171 171 171 169 175 182 171 166 177 181 189 194 197 203 200 183 176 174 179 187 233 264 261 259 245 175 165 253 261 264 263 266 282
151 149 137 134 142 155 158 167 166 160 157 166 172 171 177 190 174 168 180 184 185 192 195 207 210 189 174 170 186 202 228 261 275 275 272 225 240 261 262 259 256 268 279
132 144 137 133 139 150 160 170 159 152 158 167 171 171 180 179 162 170 179 184 187 204 208 208 221 212 177 166 183 209 235 250 261 283 296 285 267 262 250 238 246 255 254
136 147 141 142 138 145 158 155 149 153 161 167 172 175 175 173 163 176 186 188 186 196 209 216 228 218 181 167 187 219 234 241 249 264 267 257 253 255 257 252 235 233 239
106 127 140 146 144 136 147 153 146 156 166 171 179 189 188 180 167 166 177 185 178 191 211 222 213 219 213 203 197 210 230 242 249 270 261 248 233 235 233 227 227 236 248
145 147 162 157 153 152 156 156 157 167 173 181 191 203 198 177 171 169 152 83 141 145 146 143 140 129 152 166 175 188 201 212 203 212 240 250 247 251 261 259 241 233 237